Regional Weather Roundup
Issued by NWS

Home | Current Version | Previous Version | Graphics & Text | Print | Product List | Glossary On
Versions: 1 2 3 4 5 6 7 8 9 10 11 12 13 14 15 16 17 18 19 20 21 22 23 24 25 26 27 28 29 30 31 32 33 34 35 36 37 38 39 40 41 42 43 44 45 46 47 48 49 50
000
ASUS43 KMPX 121210
RWRMN
WEATHER ROUNDUP FOR MINNESOTA
NATIONAL WEATHER SERVICE TWIN CITIES/CHANHASSEN MN
600 AM CST TUE DEC 12 2017


NOTE: "FAIR" INDICATES FEW OR NO CLOUDS BELOW 12,000 FEET WITH NO
SIGNIFICANT WEATHER AND/OR OBSTRUCTIONS TO VISIBILITY. N/A MEANS
CURRENT SKY AND/OR WEATHER CONDITIONS ARE NOT AVAILABLE.

MNZ060>063-068>070-121300-
   Twin Cities Metro

CITY           SKY/WX    TMP DP  RH WIND       PRES   REMARKS
TWIN CITIES    CLOUDY     7   3  84 NW10      30.24F WCI  -8
6HR MIN TEMP:   7; 6HR MAX TEMP:  16;

ST PAUL        CLOUDY     8   2  76 NW14      30.26S WCI  -8
CRYSTAL        CLOUDY     6  -1  73 NW8       30.23F WCI  -7
BLAINE         CLOUDY     7   1  78 NW7       30.22F WCI  -5
LAKEVILLE      CLEAR      5   1  85 W8        30.22F WCI  -8
EDEN PRAIRIE   CLOUDY     8   2  76 NW9       30.23F WCI  -5
6HR MIN TEMP:   8; 6HR MAX TEMP:  15;

SOUTH ST PAUL  CLEAR      9   2  76 NW9       30.23F WCI  -5
LAKE ELMO      FAIR       7   3  85 NW8       30.22F WCI  -6
$$
MNZ001>005-007-008-013>017-022>024-027-028-121300-
   Northwest Minnesota

CITY           SKY/WX    TMP DP  RH WIND       PRES   REMARKS
BEMIDJI        FLURRIES   1  -3  86 SW3       30.12F
HALLOCK        CLOUDY    16  12  86 S12       30.08F WCI   3
ROSEAU         CLOUDY     5   0  78 S7        30.09F WCI  -7
WARROAD        CLOUDY     1   0  92 CALM      30.10F
THIEF RVR FALL CLOUDY    11   8  88 S9        30.11F WCI  -2
CROOKSTON      CLOUDY    14  12  92 S14       30.13F FOG     WCI  -1
FOSSTON        CLOUDY     9   5  85 S8        30.13F WCI  -4
DETROIT LAKES  CLOUDY    12  10  92 SW5       30.15F WCI   4
MOORHEAD       CLOUDY    14   9  79 CALM      30.17F
PARK RAPIDS    CLOUDY     6   1  80 W3        30.13F
MAHNOMEN       CLOUDY    10   8  89 S8        30.14F WCI  -2
$$
MNZ006-009>011-018-025>026-121300-
   North Central Minnesota

CITY           SKY/WX    TMP DP  RH WIND       PRES   REMARKS
BAUDETTE       CLOUDY    -1  -4  87 CALM      30.11F
FLAG ISLAND    FLURRIES   0  -4  85 CALM      30.10F
INTL FALLS     CLOUDY    -4  -9  79 CALM      30.11F
6HR MIN TEMP:  -5; 6HR MAX TEMP:  -2;

WASKISH        CLOUDY     0  -2  92 CALM      30.12F
LONGVILLE      CLOUDY    -6  -9  84 CALM      30.15F
GRAND RAPIDS   CLOUDY    -2  -5  87 W3        30.15F
CRANE LAKE     CLOUDY    -4  -8  84 CALM      30.14F
ORR            CLOUDY    -2  -6  84 CALM      30.09S
COOK           CLOUDY    -2  -4  92 W7        30.12S WCI -16
WALKER         PTSUNNY    0  -4  85 CALM      30.13F
$$
MNZ012-019>021-037-121300-
   Northeast Minnesota

CITY           SKY/WX    TMP DP  RH WIND       PRES   REMARKS
DULUTH         CLOUDY     0  -3  87 W9        30.10F WCI -15
6HR MIN TEMP:  -3; 6HR MAX TEMP:   6;

ELY            CLOUDY    -9 -13  84 CALM      30.08F
HIBBING        CLOUDY    -3  -7  82 NW5       30.11F WCI -13
EVELETH        CLOUDY    -2  -7  79 W3        30.11F
DULUTH HARBOR  PTCLDY     7   1  78 W12       30.20F WCI  -9
TWO HARBORS    CLEAR     -2  -9  71 CALM      30.10F
GRAND MARAIS     N/A      1  -7  68 CALM      30.13R
G MARAIS ARPRT CLEAR     -6 -11  77 NW7       29.98S WCI -20
$$
MNZ029>031-032-039>041-046>048-054>057-064-121300-
   West Central Minnesota

CITY           SKY/WX    TMP DP  RH WIND       PRES   REMARKS
FERGUS FALLS   CLOUDY    10   7  85 S5        30.23F WCI   2
WHEATON        CLOUDY    14  10  85 S7        30.22F WCI   4
MORRIS         CLOUDY    12   9  85 CALM      30.20F
ALEXANDRIA     CLOUDY    10   5  80 W3        30.19F
ELBOW LAKE     CLOUDY    11   7  86 S5        30.20F WCI   3
WADENA         CLOUDY     7   3  85 W5        30.16F WCI  -2
GLENWOOD       CLOUDY     9   7  92 W6        30.20F WCI  -1
APPLETON       CLOUDY    12   9  85 CALM      30.24F
BENSON         CLOUDY    10   7  85 CALM      30.24F
ORTONVILLE     CLOUDY    12   9  85 S3        30.22F
MADISON        CLOUDY    14  10  85 SW6       30.24F WCI   5
WILLMAR        CLOUDY    10   7  85 W6        30.24F WCI   1
$$
MNZ033>034-036-042>043-049>051-058-059-121300-
   Central Minnesota

CITY           SKY/WX    TMP DP  RH WIND       PRES   REMARKS
ST CLOUD       CLOUDY     5   2  87 NW6       30.22F WCI  -6
6HR MIN TEMP:   3; 6HR MAX TEMP:   8;

SAUK CENTRE    CLOUDY     8   4  84 W6        30.20F WCI  -2
PAYNESVILLE    CLOUDY     8   5  89 CALM      30.23F
AITKIN         PTCLDY     0  -4  85 W3        30.16F
PINE RIVER     CLOUDY    -4  -8  84 CALM      30.19F
BRAINERD       CLOUDY    -3  -8  79 W3        30.18F
STAPLES        CLOUDY     3   1  92 SW3       30.17F
LONG PRAIRIE   CLOUDY     7   3  85 SW6       30.20F WCI  -3
LITTLE FALLS   CLOUDY     1  -6  71 CALM      30.21F
LITCHFIELD     PTCLDY    10   7  85 W9        30.24S WCI  -2
BUFFALO        CLOUDY     8   2  79 W6        30.23F WCI  -3
MAPLE LAKE     CLOUDY    10   5  80 NW6       30.23F WCI   0
HUTCHINSON     CLOUDY     9   5  83 W7        30.24F WCI  -2
$$
MNZ037-044-045-052-053-121300-
   East Central Minnesota

CITY           SKY/WX    TMP DP  RH WIND       PRES   REMARKS
PRINCETON      CLOUDY     1  -2  85 CALM      30.21F
MORA           CLOUDY     1  -2  85 W3        30.22F
CAMBRIDGE      CLOUDY     3  -4  72 W5        30.22F WCI  -6
RUSH CITY      CLOUDY     1  -2  86 W3        30.22S
MOOSE LAKE     CLOUDY     1  -2  85 SW3       30.16F
HINCKLEY       FAIR       3   1  92 W5        30.20S WCI  -6
CLOQUET        FLURRIES   0  -6  78 W5        30.13F WCI -10
MCGREGOR       CLOUDY     1  -2  85 CALM      30.17S
$$
MNZ071>073-080-081-089-090-097-098-121300-
   Southwest Minnesota

CITY           SKY/WX    TMP DP  RH WIND       PRES   REMARKS
MONTEVIDEO     CLOUDY    10   7  85 CALM      30.25F
GRANITE FALLS  CLOUDY     9   6  90 SW5       30.28S WCI   0
CANBY          CLOUDY    15  12  87 SW3       30.26F
MARSHALL       CLOUDY    11   7  84 SW6       30.26F WCI   1
REDWOOD FALLS  CLOUDY    10   4  76 W8        30.26F WCI  -2
OLIVIA         CLOUDY    10   7  85 W5        30.25S WCI   2
PIPESTONE      CLEAR     10   9  92 N3        30.24S
WINDOM           N/A     10   0  61 W8        30.23F WCI  -1
WORTHINGTON    CLOUDY    10   7  87 W8        30.25F WCI  -2
JACKSON        CLOUDY    12   9  85 MISG      30.23F
TRACY          CLOUDY    13   9  87 W6        30.24F WCI   3
SLAYTON        CLOUDY    10   7  88 W5        30.24F WCI   1
$$
MNZ065>067-074>077-082>085-091>093-121300-
   South Central Minnesota

CITY           SKY/WX    TMP DP  RH WIND       PRES   REMARKS
MANKATO        PTCLDY     8   3  80 NW9       30.25F WCI  -5
NEW ULM        MOCLDY    10   3  72 NW8       30.26S WCI  -1
ST JAMES       CLEAR      9   7  92 W7        30.27S WCI  -3
FAIRMONT       CLEAR     10   6  84 NW12      30.25F WCI  -5
GLENCOE        CLOUDY    11   6  81 W7        30.23F WCI   0
FARIBAULT      PTCLDY     9   3  78 W7        30.22S WCI  -3
OWATONNA       PTCLDY     7   3  85 W8        30.21F WCI  -6
WASECA         PTCLDY    10   5  79 NW10      30.23F WCI  -3
ALBERT LEA     CLEAR      9   3  78 NW7       30.21S WCI  -3
$$
MNZ078>079-086>088-094>096-121300-
   Southeast Minnesota

CITY           SKY/WX    TMP DP  RH WIND       PRES   REMARKS
ROCHESTER      CLEAR      6   4  91 NW9       30.17F WCI  -8
6HR MIN TEMP:   6; 6HR MAX TEMP:  16;

RED WING       CLOUDY     9   1  72 NW5       30.22S WCI   0
STANTON        CLEAR      8   3  82 NW3       30.21F
DODGE CENTER   CLEAR      7   3  85 NW9       30.17F WCI  -7
WINONA           N/A     14   9  79 NW13G21   30.22S WCI   0
AUSTIN         CLEAR      9   3  78 NW10      30.19F WCI  -6
PRESTON        CLEAR      8   5  86 NW9       30.17S WCI  -5
$$
ABBREVIATIONS USED IN REMARKS
   TC - TEMPERATURES IN CELSIUS
  WCI - WIND CHILL INDEX
   HX - HEAT INDEX
  VSB - VISIBILITY
$$




USA.gov is the U.S. government's official web portal to all federal, state and local government web resources and services.